Location: Courçay
(47.2523°N, 0.8761°E)
Time: 20:29:27
(UTC+00:00)

Geosat FO - Pass Details

Date: 18 November 2025
Orbit: 363 x 448 km, 108.0° (Epoch: 05 December)

Event Time Altitude Azimuth Distance (km) Brightness Sun altitude
Exits shadow 17:55:44 32° 138° (SE) 653 4.9 -16.4°
Maximum altitude 17:56:53 73° 59° (ENE) 386 3.8 -16.6°
Drops below altitude 10° 17:59:44 10° 335° (NNW) 1,362 7.0 -17.1°
Sets 18:01:39 0° 333° (NNW) 2,218 8.1 -17.4°
